Hourly Data Report for September 01, 2017

All times are specified in Local Standard Time (LST). Add 1 hour to adjust for Daylight Saving Time where and when it is observed.

EUREKA CLIMATE
NUNAVUT

79°59'21.000" N
85°56'02.000" W
10.00 m
2401199
71613
NEK

Download Data

Hourly Data (September 2017)
Hourly Data Report for September 1, 2017
Temp Definition
°C
Dew Point Temp Definition
°C
Rel Hum Definition
%
Wind Dir Definition
10's deg

Wind Spd Definition
km/h
Visibility Definition
km
Stn Press Definition
kPa
Hmdx Definition


Wind Chill Definition


Weather Definition


TIME
00:00 -2.0 -2.2 99 2 3   99.78   -3 LegendNANA
01:00 -2.2 -2.4 99 15 2   99.81   -3 LegendNANA
02:00 -1.9 -2.2 98 22 1   99.83   -2 LegendNANA
03:00 -1.7 -2.4 95 26 3   99.85   -3 LegendNANA
04:00 -2.6 -4.5 87 34 18   99.89   -8 LegendNANA
05:00 -3.5 -5.3 87 34 29   99.95   -11 LegendNANA
06:00 -3.7 -5.3 89 31 25   100.01   -11 LegendNANA
07:00 -3.9 -5.8 87 31 29   100.03   -11 LegendNANA
08:00 -4.2 -6.3 85 30 25   100.09   -11 LegendNANA
09:00 -4.5 -7.4 80 33 24   100.13   -12 LegendNANA
10:00 -4.3 -7.4 79 34 7   100.19   -7 LegendNANA
11:00 -3.8 -7.1 78 34 13   100.23   -9 LegendNANA
12:00 -3.2 -6.8 76 33 34   100.24   -11 LegendNANA
13:00 -3.5 -6.1 82 34 32   100.28   -11 LegendNANA
14:00 -3.5 -6.2 82 34 30   100.34   -11 LegendNANA
15:00 -3.4 -5.7 84 34 29   100.42   -11 LegendNANA
16:00 -3.1 -6.3 79 33 26   100.48   -10 LegendNANA
17:00 -3.1 -5.8 81 34 28   100.53   -10 LegendNANA
18:00 -3.2 -6.4 78 34 26   100.57   -10 LegendNANA
19:00 -3.5 -7.0 77 33 17   100.62   -9 LegendNANA
20:00 -3.9 -6.4 82 33 15   100.66   -9 LegendNANA
21:00 -3.3 -6.0 81 31 13   100.69   -8 LegendNANA
22:00 -3.8 -6.1 85 31 9   100.70   -8 LegendNANA
23:00 -4.1 -6.7 82 33 15   100.71   -9 LegendNANA

Notes on Data Quality.

Legend

  • E = Estimated
  • M = Missing
  • NA = Not Available
  • ‡ = Partner data that is not subject to review by the National Climate Archives
Date modified: